Regional Weather Roundup
Issued by NWS

Home | Current Version | Previous Version | Graphics & Text | Print | Product List | Glossary On
Versions: 1 2 3 4 5 6 7 8 9 10 11 12 13 14 15 16 17 18 19 20 21 22 23 24 25 26 27 28 29 30 31 32 33 34 35 36 37 38 39 40 41 42 43 44 45 46 47 48 49 50
000
ASUS43 KOAX 260202
RWRNE

WEATHER ROUNDUP FOR NEBRASKA
NATIONAL WEATHER SERVICE OMAHA NE
800 PM CST SAT FEB 25 2017

NOTES: SATELLITE DATA IS BEING USED TO AUGMENT CLOUD COVER ABOVE
       12000 FEET.
       "FAIR" INDICATES FEW OR NO CLOUDS BELOW 12,000 FEET WITH NO
       SIGNIFICANT WEATHER AND/OR OBSTRUCTIONS TO VISIBILITY.

  * THESE STATIONS DO NOT REPORT WEATHER SUCH AS RAIN...SNOW OR FOG.

NEZ001>004-019>022-054>056-260300-
NEBRASKA PANHANDLE

CITY           SKY/WX    TMP DP  RH WIND       PRES   REMARKS
SCOTTSBLUFF    CLOUDY    25  12  58 W17       29.77F WCI  12
ALLIANCE       CLEAR     16   9  74 W13       29.75F WCI   2
CHADRON        CLEAR     19   7  59 SW16      29.74F WCI   4
KIMBALL        CLOUDY    22  13  66 W10       29.79F WCI  12
SIDNEY         CLOUDY    22  14  71 W7        29.81S WCI  13
$$

NEZ057>060-069>072-079>082-260300-
SOUTHWEST NEBRASKA

CITY           SKY/WX    TMP DP  RH WIND       PRES   REMARKS
NORTH PLATTE   CLOUDY    24  15  68 SW5       29.85F WCI  18
IMPERIAL       CLOUDY    28  21  75 CALM      29.86S
LEXINGTON      CLEAR     27  20  75 SW5       29.87F WCI  22
MCCOOK         CLEAR     27  12  53 NW7       29.89F WCI  19
OGALLALA       CLOUDY    25  18  74 W3        29.84S
$$

NEZ005>010-023>029-035>040-094-260300-
NORTH CENTRAL NEBRASKA

CITY           SKY/WX    TMP DP  RH WIND       PRES   REMARKS
VALENTINE      MOCLDY    22  16  78 CALM      29.78F
AINSWORTH      CLOUDY    25  20  82 SW9       29.79F WCI  16
BROKEN BOW     CLOUDY    19  16  88 CALM      29.84F
O`NEILL        CLOUDY    22  18  81 SW7       29.82F WCI  14
ORD            CLOUDY    29  19  66 SW8       29.85S WCI  21
THEDFORD       CLOUDY    21  17  83 SW7       29.81S WCI  12
$$

NEZ041-046>049-061>064-073>077-083>087-260300-
SOUTH CENTRAL NEBRASKA

CITY           SKY/WX    TMP DP  RH WIND       PRES   REMARKS
GRAND ISLAND   PTCLDY    32  25  75 W9        29.88F WCI  24
AURORA         CLOUDY    30  24  78 W6        29.88F WCI  24
HASTINGS       CLEAR     31  22  69 W7        29.90S WCI  24
HEBRON         MOCLDY    36  29  73 CALM      29.92F
HOLDREGE       CLEAR     30  19  64 CALM      29.88F
KEARNEY *      CLEAR     32  19  59 W3        29.88F
YORK           CLOUDY    32  28  86 SW7       29.89F WCI  26
$$

NEZ011>018-030>034-042>045-260300-
NORTHEAST NEBRASKA

CITY           SKY/WX    TMP DP  RH WIND       PRES   REMARKS
NORFOLK        CLOUDY    27  20  75 S14       29.85F WCI  16
ALBION         CLOUDY    28  20  71 CALM      29.86F
BLAIR          PTCLDY    30  21  69 S8        29.90F WCI  22
FREMONT        CLEAR     29  22  74 SE8       29.90F WCI  22
TEKAMAH        CLEAR     20  15  81 SE7       29.91F WCI  11
WAYNE          CLEAR     21  17  86 S7        29.86F WCI  12
$$

NEZ050>053-065>068-078-088>093-260300-
SOUTHEAST NEBRASKA

CITY           SKY/WX    TMP DP  RH WIND       PRES   REMARKS
LINCOLN        CLEAR     32  23  69 S3        29.92F
OMAHA EPPLEY   PTCLDY    33  21  61 S13       29.93F WCI  24
BEATRICE       CLOUDY    37  21  51 S7        29.93F WCI  32
FALLS CITY     CLOUDY    36  17  46 S8        29.97F WCI  30
NEBRASKA CITY  CLOUDY    33  19  57 S8        29.95F WCI  26
PLATTSMOUTH    MOCLDY    33  19  55 S9        29.93F WCI  25
$$

NEZ044-045-051>053-067-260300-
OMAHA AREA

CITY           SKY/WX    TMP DP  RH WIND       PRES   REMARKS
OMAHA EPPLEY   PTCLDY    33  21  61 S13       29.93F WCI  24
BLAIR          PTCLDY    30  21  69 S8        29.90F WCI  22
FREMONT        CLEAR     29  22  74 SE8       29.90F WCI  22
MILLARD        PTCLDY    33  23  67 SE6       29.93F WCI  27
OFFUTT AFB     CLOUDY    32  21  65 S7        29.93F WCI  25
PLATTSMOUTH    MOCLDY    33  19  55 S9        29.93F WCI  25
WAHOO          FAIR      26  20  77 S7        29.91F WCI  18
$$



USA.gov is the U.S. government's official web portal to all federal, state and local government web resources and services.